Ship Status Report: callsign BAREU11

sailwx.info

Track history (hours):
 
Tides and Currents Weather Stations Pressure Air Temp Water Temp Dewpoint Dewpoint Depression Visibility Wind Speed Wind Dir Waves Ship Positions

Callsign BAREU11 (name unknown)

Last reported at 2014-Oct-22 04:00 UTC. Time now 2014-Oct-22 12:28 UTC.
Position N 51°24' E 002°36'.

Barometer 1019.1 mb

Date/timePositionNaut miles runAvg speedWind from/ knotsBaromVisibWave heightAir tempDewpointWater temp
2014-Oct-22 04:00N 51°24' E 002°36'0 0.0 1019.1
2014-Oct-22 02:00N 51°24' E 002°36'0 0.0 1017.8
2014-Oct-21 23:00N 51°24' E 002°36'0 0.0 1015.4
2014-Oct-21 07:00N 51°24' E 002°36'10 9.6 1003.6
2014-Oct-21 06:00N 51°18' E 002°24'8 7.5 1004.4
2014-Oct-21 05:00N 51°18' E 002°12'2311.7 1005.4
2014-Oct-21 03:00N 51°36' E 001°48'13 6.3 1007.0
2014-Oct-21 01:00N 51°48' E 001°42'10 9.5 1009.4
2014-Oct-21 00:00N 51°42' E 001°30'1919.1 1010.9
2014-Oct-20 23:00N 51°30' E 001°06'1111.2 1011.9
2014-Oct-20 22:00N 51°30' E 000°48'11 5.6 1012.5
2014-Oct-20 20:00N 51°30' E 000°30'0 0.0 1013.9
2014-Oct-20 19:00N 51°30' E 000°30'0 0.0 1014.4
2014-Oct-20 13:00N 51°30' E 000°30'0 0.0 1015.9
2014-Oct-20 12:00N 51°30' E 000°30'0 0.0 1016.4
2014-Oct-20 11:00N 51°30' E 000°30'19 2.3 1016.9
2014-Oct-20 03:00N 51°30' E 001°00'1312.7 1015.7
2014-Oct-20 02:00N 51°36' E 001°18'1616.4 1015.3
2014-Oct-20 01:00N 51°48' E 001°36'7 7.1 1015.3
2014-Oct-20 00:00N 51°54' E 001°42'1414.1 1014.6
2014-Oct-19 23:00N 52°06' E 001°54'9 9.5 1014.1
2014-Oct-19 22:00N 52°12' E 002°06'1312.5 1014.0
2014-Oct-19 21:00N 52°18' E 002°24'1616.3 1012.9
2014-Oct-19 20:00N 52°30' E 002°42'1212.5 1012.1
2014-Oct-19 19:00N 52°36' E 003°00'1212.5 1011.3
2014-Oct-19 18:00N 52°42' E 003°18'1616.2 1010.7
2014-Oct-19 17:00N 52°54' E 003°36'1212.4 1009.8
2014-Oct-19 16:00N 53°00' E 003°54'1212.4 1009.5
2014-Oct-19 15:00N 53°06' E 004°12'9 9.4 1009.2
2014-Oct-19 14:00N 53°12' E 004°24'1312.5 1009.5
2014-Oct-19 13:00N 53°24' E 004°30'1212.3 1009.2
2014-Oct-19 12:00N 53°30' E 004°48'1212.3 1009.3
2014-Oct-19 11:00N 53°36' E 005°06'1515.4 1009.2
2014-Oct-19 10:00N 53°42' E 005°30'1110.7 1009.0
2014-Oct-19 09:00N 53°42' E 005°48'2813.8 1009.4
2014-Oct-19 07:00N 53°54' E 006°30'1414.1 1010.6
2014-Oct-19 06:00N 53°54' E 006°54'1212.2 1011.0
2014-Oct-19 05:00N 54°00' E 007°12'1110.6 1011.7
2014-Oct-19 04:00N 54°00' E 007°30'1414.1 1012.5
2014-Oct-19 03:00N 54°00' E 007°54'1110.6 1013.4
2014-Oct-19 02:00N 54°00' E 008°12'1414.1 1014.1
2014-Oct-19 01:00N 54°00' E 008°36'1212.2 1015.1
2014-Oct-19 00:00N 53°54' E 008°54'1110.6 1015.6
2014-Oct-18 23:00N 53°54' E 009°12'1616.0 1016.4
2014-Oct-18 22:00N 53°42' E 009°30'7 7.0 1017.0
2014-Oct-18 21:00N 53°36' E 009°36'1212.3 1017.5
2014-Oct-18 20:00N 53°30' E 009°54'0 0.0 1018.4
2014-Oct-18 10:00N 53°30' E 009°54'0 0.0 1021.0
2014-Oct-18 07:00N 53°30' E 009°54'7 0.4 1021.1
2014-Oct-17 14:00N 53°36' E 009°48'7 7.1 1013.2
2014-Oct-17 13:00N 53°36' E 009°36'2311.5 1012.3
2014-Oct-17 11:00N 53°54' E 009°12'2211.0 1011.0
2014-Oct-17 09:00N 54°00' E 008°36'1414.1 1009.5
2014-Oct-17 08:00N 54°00' E 008°12'1414.1 1008.1
2014-Oct-17 07:00N 54°00' E 007°48'1918.6 1007.5
2014-Oct-17 06:00N 53°54' E 007°18'1918.7 1006.5
2014-Oct-17 05:00N 53°48' E 006°48'1918.7 1005.8
2014-Oct-17 04:00N 53°42' E 006°18'1918.8 1005.5
2014-Oct-17 03:00N 53°36' E 005°48'1918.8 1005.2
2014-Oct-17 02:00N 53°30' E 005°18'1918.8 1005.1
2014-Oct-17 01:00N 53°24' E 004°48'1616.1 1005.2
2014-Oct-17 00:00N 53°12' E 004°30'1919.4 1005.0
2014-Oct-16 23:00N 52°54' E 004°18'2121.0 1005.3
2014-Oct-16 22:00N 52°36' E 004°00'3618.1 1005.3
2014-Oct-16 20:00N 52°00' E 003°54'1111.1 1005.9
2014-Oct-16 19:00N 52°00' E 004°12'10 9.5 1006.0
2014-Oct-16 18:00N 51°54' E 004°24'0 0.0 1005.7
2014-Oct-16 08:00N 51°54' E 004°24'0 0.0 1002.3
2014-Oct-15 21:00N 51°54' E 004°24'4 0.3 1005.4
2014-Oct-15 08:00N 51°54' E 004°18'10 9.5 1006.7
2014-Oct-15 07:00N 52°00' E 004°06'1514.8 1006.3
2014-Oct-15 06:00N 52°00' E 003°42'1616.0 1005.7
2014-Oct-15 05:00N 51°54' E 003°18'1616.0 1006.0
2014-Oct-15 04:00N 51°48' E 002°54'1919.1 1006.0
2014-Oct-15 03:00N 51°36' E 002°30'1616.4 1006.3
2014-Oct-15 02:00N 51°24' E 002°12'3316.5 1006.6
2014-Oct-15 00:00N 51°00' E 001°36'1414.2 1007.5
2014-Oct-14 23:00N 50°48' E 001°24'1414.2 1007.9
2014-Oct-14 22:00N 50°36' E 001°12'1616.4 1008.5
2014-Oct-14 21:00N 50°30' E 000°48'1616.4 1008.7
2014-Oct-14 20:00N 50°24' E 000°24'1616.4 1008.5
2014-Oct-14 19:00N 50°18' E 000°00'1616.5 1008.5
2014-Oct-14 18:00N 50°12' W 000°24'1515.4 1008.4
2014-Oct-14 17:00N 50°12' W 000°48'1716.5 1007.9
2014-Oct-14 16:00N 50°06' W 001°12'2020.2 1007.8
2014-Oct-14 15:00N 50°00' W 001°42'1716.6 1007.8
2014-Oct-14 14:00N 49°54' W 002°06'3919.6 1007.9
2014-Oct-14 12:00N 49°48' W 003°06'1716.6 1008.3
2014-Oct-14 11:00N 49°42' W 003°30'1919.4 1008.6
2014-Oct-14 10:00N 49°42' W 004°00'1919.4 1008.7
2014-Oct-14 09:00N 49°42' W 004°30'1716.7 1008.9
2014-Oct-14 08:00N 49°36' W 004°54'1919.4 1008.6
2014-Oct-14 07:00N 49°36' W 005°24'3919.4 1008.2
2014-Oct-14 05:00N 49°36' W 006°24'1615.6 1008.0
2014-Oct-14 04:00N 49°36' W 006°48'1615.6 1008.1
2014-Oct-14 03:00N 49°36' W 007°12'1919.4 1008.7
2014-Oct-14 02:00N 49°36' W 007°42'1615.6 1009.2
2014-Oct-14 01:00N 49°36' W 008°06'1615.6 1009.6
2014-Oct-14 00:00N 49°36' W 008°30'1919.4 1009.8
2014-Oct-13 23:00N 49°36' W 009°00'1716.7 1010.0
2014-Oct-13 22:00N 49°30' W 009°24'1615.6 1010.1
2014-Oct-13 21:00N 49°30' W 009°48'1716.7 1009.5
2014-Oct-13 20:00N 49°24' W 010°12'3718.6 1009.0
2014-Oct-13 18:00N 49°12' W 011°06'3718.7 1008.5
2014-Oct-13 16:00N 49°00' W 012°00'1615.7 1008.5
2014-Oct-13 15:00N 49°00' W 012°24'1716.9 1008.6
2014-Oct-13 14:00N 48°54' W 012°48'1716.9 1008.5
2014-Oct-13 13:00N 48°48' W 013°12'2120.7 1008.1
2014-Oct-13 12:00N 48°42' W 013°42'1717.0 1007.9
2014-Oct-13 11:00N 48°36' W 014°06'3216.2 1007.8
2014-Oct-13 09:00N 48°30' W 014°54'1717.0 1006.7
2014-Oct-13 08:00N 48°24' W 015°18'1717.0 1006.0
2014-Oct-13 07:00N 48°18' W 015°42'3417.1 1005.1
2014-Oct-13 05:00N 48°06' W 016°30'1717.1 1003.6
2014-Oct-13 04:00N 48°00' W 016°54'2121.0 1003.3
2014-Oct-13 03:00N 47°54' W 017°24'1717.2 1002.8
2014-Oct-13 02:00N 47°48' W 017°48'1616.1 1002.5
2014-Oct-13 01:00N 47°48' W 018°12'1717.2 1001.6
2014-Oct-13 00:00N 47°42' W 018°36'1717.2 1001.0
2014-Oct-12 23:00N 47°36' W 019°00'1717.3 1001.3
2014-Oct-12 22:00N 47°30' W 019°24'2121.2 1001.9
2014-Oct-12 21:00N 47°24' W 019°54'1717.3 1002.2
2014-Oct-12 20:00N 47°18' W 020°18'1717.4 1002.3
2014-Oct-12 19:00N 47°12' W 020°42'1717.4 1002.2
2014-Oct-12 18:00N 47°06' W 021°06'1717.4 1002.3
2014-Oct-12 17:00N 47°00' W 021°30'1717.4 1002.9
2014-Oct-12 16:00N 46°54' W 021°54'1717.5 1002.9
2014-Oct-12 15:00N 46°48' W 022°18'2020.4 1003.7
2014-Oct-12 14:00N 46°36' W 022°42'1817.6 1004.3
2014-Oct-12 13:00N 46°30' W 023°06'3919.6 1005.4
2014-Oct-12 11:00N 46°18' W 024°00'1817.6 1006.2
2014-Oct-12 10:00N 46°12' W 024°24'1817.7 1006.4
2014-Oct-12 09:00N 46°06' W 024°48'1817.7 1006.8
2014-Oct-12 08:00N 46°00' W 025°12'2120.6 1007.4
2014-Oct-12 07:00N 45°48' W 025°36'1817.8 1007.4
2014-Oct-12 06:00N 45°42' W 026°00'1413.9 1008.9
2014-Oct-12 05:00N 45°36' W 026°18'   1010.4
Track history (hours):
 
Tides and Currents Weather Stations Pressure Air Temp Water Temp Dewpoint Dewpoint Depression Visibility Wind Speed Wind Dir Waves Ship Positions

Callsign BAREU11 (name unknown)

Last reported at 2014-Oct-22 04:00 UTC. Time now 2014-Oct-22 12:28 UTC.
Position N 51°24' E 002°36'.

Barometer 1019.1 mb

Date/timePositionNaut miles runAvg speedWind from/ knotsBaromVisibWave heightAir tempDewpointWater temp
2014-Oct-22 04:00N 51°24' E 002°36'0 0.0 1019.1
2014-Oct-22 02:00N 51°24' E 002°36'0 0.0 1017.8
2014-Oct-21 23:00N 51°24' E 002°36'0 0.0 1015.4
2014-Oct-21 07:00N 51°24' E 002°36'10 9.6 1003.6
2014-Oct-21 06:00N 51°18' E 002°24'8 7.5 1004.4
2014-Oct-21 05:00N 51°18' E 002°12'2311.7 1005.4
2014-Oct-21 03:00N 51°36' E 001°48'13 6.3 1007.0
2014-Oct-21 01:00N 51°48' E 001°42'10 9.5 1009.4
2014-Oct-21 00:00N 51°42' E 001°30'1919.1 1010.9
2014-Oct-20 23:00N 51°30' E 001°06'1111.2 1011.9
2014-Oct-20 22:00N 51°30' E 000°48'11 5.6 1012.5
2014-Oct-20 20:00N 51°30' E 000°30'0 0.0 1013.9
2014-Oct-20 19:00N 51°30' E 000°30'0 0.0 1014.4
2014-Oct-20 13:00N 51°30' E 000°30'0 0.0 1015.9
2014-Oct-20 12:00N 51°30' E 000°30'0 0.0 1016.4
2014-Oct-20 11:00N 51°30' E 000°30'19 2.3 1016.9
2014-Oct-20 03:00N 51°30' E 001°00'1312.7 1015.7
2014-Oct-20 02:00N 51°36' E 001°18'1616.4 1015.3
2014-Oct-20 01:00N 51°48' E 001°36'7 7.1 1015.3
2014-Oct-20 00:00N 51°54' E 001°42'1414.1 1014.6
2014-Oct-19 23:00N 52°06' E 001°54'9 9.5 1014.1
2014-Oct-19 22:00N 52°12' E 002°06'1312.5 1014.0
2014-Oct-19 21:00N 52°18' E 002°24'1616.3 1012.9
2014-Oct-19 20:00N 52°30' E 002°42'1212.5 1012.1
2014-Oct-19 19:00N 52°36' E 003°00'1212.5 1011.3
2014-Oct-19 18:00N 52°42' E 003°18'1616.2 1010.7
2014-Oct-19 17:00N 52°54' E 003°36'1212.4 1009.8
2014-Oct-19 16:00N 53°00' E 003°54'1212.4 1009.5
2014-Oct-19 15:00N 53°06' E 004°12'9 9.4 1009.2
2014-Oct-19 14:00N 53°12' E 004°24'1312.5 1009.5
2014-Oct-19 13:00N 53°24' E 004°30'1212.3 1009.2
2014-Oct-19 12:00N 53°30' E 004°48'1212.3 1009.3
2014-Oct-19 11:00N 53°36' E 005°06'1515.4 1009.2
2014-Oct-19 10:00N 53°42' E 005°30'1110.7 1009.0
2014-Oct-19 09:00N 53°42' E 005°48'2813.8 1009.4
2014-Oct-19 07:00N 53°54' E 006°30'1414.1 1010.6
2014-Oct-19 06:00N 53°54' E 006°54'1212.2 1011.0
2014-Oct-19 05:00N 54°00' E 007°12'1110.6 1011.7
2014-Oct-19 04:00N 54°00' E 007°30'1414.1 1012.5
2014-Oct-19 03:00N 54°00' E 007°54'1110.6 1013.4
2014-Oct-19 02:00N 54°00' E 008°12'1414.1 1014.1
2014-Oct-19 01:00N 54°00' E 008°36'1212.2 1015.1
2014-Oct-19 00:00N 53°54' E 008°54'1110.6 1015.6
2014-Oct-18 23:00N 53°54' E 009°12'1616.0 1016.4
2014-Oct-18 22:00N 53°42' E 009°30'7 7.0 1017.0
2014-Oct-18 21:00N 53°36' E 009°36'1212.3 1017.5
2014-Oct-18 20:00N 53°30' E 009°54'0 0.0 1018.4
2014-Oct-18 10:00N 53°30' E 009°54'0 0.0 1021.0
2014-Oct-18 07:00N 53°30' E 009°54'7 0.4 1021.1
2014-Oct-17 14:00N 53°36' E 009°48'7 7.1 1013.2
2014-Oct-17 13:00N 53°36' E 009°36'2311.5 1012.3
2014-Oct-17 11:00N 53°54' E 009°12'2211.0 1011.0
2014-Oct-17 09:00N 54°00' E 008°36'1414.1 1009.5
2014-Oct-17 08:00N 54°00' E 008°12'1414.1 1008.1
2014-Oct-17 07:00N 54°00' E 007°48'1918.6 1007.5
2014-Oct-17 06:00N 53°54' E 007°18'1918.7 1006.5
2014-Oct-17 05:00N 53°48' E 006°48'1918.7 1005.8
2014-Oct-17 04:00N 53°42' E 006°18'1918.8 1005.5
2014-Oct-17 03:00N 53°36' E 005°48'1918.8 1005.2
2014-Oct-17 02:00N 53°30' E 005°18'1918.8 1005.1
2014-Oct-17 01:00N 53°24' E 004°48'1616.1 1005.2
2014-Oct-17 00:00N 53°12' E 004°30'1919.4 1005.0
2014-Oct-16 23:00N 52°54' E 004°18'2121.0 1005.3
2014-Oct-16 22:00N 52°36' E 004°00'3618.1 1005.3
2014-Oct-16 20:00N 52°00' E 003°54'1111.1 1005.9
2014-Oct-16 19:00N 52°00' E 004°12'10 9.5 1006.0
2014-Oct-16 18:00N 51°54' E 004°24'0 0.0 1005.7
2014-Oct-16 08:00N 51°54' E 004°24'0 0.0 1002.3
2014-Oct-15 21:00N 51°54' E 004°24'4 0.3 1005.4
2014-Oct-15 08:00N 51°54' E 004°18'10 9.5 1006.7
2014-Oct-15 07:00N 52°00' E 004°06'1514.8 1006.3
2014-Oct-15 06:00N 52°00' E 003°42'1616.0 1005.7
2014-Oct-15 05:00N 51°54' E 003°18'1616.0 1006.0
2014-Oct-15 04:00N 51°48' E 002°54'1919.1 1006.0
2014-Oct-15 03:00N 51°36' E 002°30'1616.4 1006.3
2014-Oct-15 02:00N 51°24' E 002°12'3316.5 1006.6
2014-Oct-15 00:00N 51°00' E 001°36'1414.2 1007.5
2014-Oct-14 23:00N 50°48' E 001°24'1414.2 1007.9
2014-Oct-14 22:00N 50°36' E 001°12'1616.4 1008.5
2014-Oct-14 21:00N 50°30' E 000°48'1616.4 1008.7
2014-Oct-14 20:00N 50°24' E 000°24'1616.4 1008.5
2014-Oct-14 19:00N 50°18' E 000°00'1616.5 1008.5
2014-Oct-14 18:00N 50°12' W 000°24'1515.4 1008.4
2014-Oct-14 17:00N 50°12' W 000°48'1716.5 1007.9
2014-Oct-14 16:00N 50°06' W 001°12'2020.2 1007.8
2014-Oct-14 15:00N 50°00' W 001°42'1716.6 1007.8
2014-Oct-14 14:00N 49°54' W 002°06'3919.6 1007.9
2014-Oct-14 12:00N 49°48' W 003°06'1716.6 1008.3
2014-Oct-14 11:00N 49°42' W 003°30'1919.4 1008.6
2014-Oct-14 10:00N 49°42' W 004°00'1919.4 1008.7
2014-Oct-14 09:00N 49°42' W 004°30'1716.7 1008.9
2014-Oct-14 08:00N 49°36' W 004°54'1919.4 1008.6
2014-Oct-14 07:00N 49°36' W 005°24'3919.4 1008.2
2014-Oct-14 05:00N 49°36' W 006°24'1615.6 1008.0
2014-Oct-14 04:00N 49°36' W 006°48'1615.6 1008.1
2014-Oct-14 03:00N 49°36' W 007°12'1919.4 1008.7
2014-Oct-14 02:00N 49°36' W 007°42'1615.6 1009.2
2014-Oct-14 01:00N 49°36' W 008°06'1615.6 1009.6
2014-Oct-14 00:00N 49°36' W 008°30'1919.4 1009.8
2014-Oct-13 23:00N 49°36' W 009°00'1716.7 1010.0
2014-Oct-13 22:00N 49°30' W 009°24'1615.6 1010.1
2014-Oct-13 21:00N 49°30' W 009°48'1716.7 1009.5
2014-Oct-13 20:00N 49°24' W 010°12'3718.6 1009.0
2014-Oct-13 18:00N 49°12' W 011°06'3718.7 1008.5
2014-Oct-13 16:00N 49°00' W 012°00'1615.7 1008.5
2014-Oct-13 15:00N 49°00' W 012°24'1716.9 1008.6
2014-Oct-13 14:00N 48°54' W 012°48'1716.9 1008.5
2014-Oct-13 13:00N 48°48' W 013°12'2120.7 1008.1
2014-Oct-13 12:00N 48°42' W 013°42'1717.0 1007.9
2014-Oct-13 11:00N 48°36' W 014°06'3216.2 1007.8
2014-Oct-13 09:00N 48°30' W 014°54'1717.0 1006.7
2014-Oct-13 08:00N 48°24' W 015°18'1717.0 1006.0
2014-Oct-13 07:00N 48°18' W 015°42'3417.1 1005.1
2014-Oct-13 05:00N 48°06' W 016°30'1717.1 1003.6
2014-Oct-13 04:00N 48°00' W 016°54'2121.0 1003.3
2014-Oct-13 03:00N 47°54' W 017°24'1717.2 1002.8
2014-Oct-13 02:00N 47°48' W 017°48'1616.1 1002.5
2014-Oct-13 01:00N 47°48' W 018°12'1717.2 1001.6
2014-Oct-13 00:00N 47°42' W 018°36'1717.2 1001.0
2014-Oct-12 23:00N 47°36' W 019°00'1717.3 1001.3
2014-Oct-12 22:00N 47°30' W 019°24'2121.2 1001.9
2014-Oct-12 21:00N 47°24' W 019°54'1717.3 1002.2
2014-Oct-12 20:00N 47°18' W 020°18'1717.4 1002.3
2014-Oct-12 19:00N 47°12' W 020°42'1717.4 1002.2
2014-Oct-12 18:00N 47°06' W 021°06'1717.4 1002.3
2014-Oct-12 17:00N 47°00' W 021°30'1717.4 1002.9
2014-Oct-12 16:00N 46°54' W 021°54'1717.5 1002.9
2014-Oct-12 15:00N 46°48' W 022°18'2020.4 1003.7
2014-Oct-12 14:00N 46°36' W 022°42'1817.6 1004.3
2014-Oct-12 13:00N 46°30' W 023°06'3919.6 1005.4
2014-Oct-12 11:00N 46°18' W 024°00'1817.6 1006.2
2014-Oct-12 10:00N 46°12' W 024°24'1817.7 1006.4
2014-Oct-12 09:00N 46°06' W 024°48'1817.7 1006.8
2014-Oct-12 08:00N 46°00' W 025°12'2120.6 1007.4
2014-Oct-12 07:00N 45°48' W 025°36'1817.8 1007.4
2014-Oct-12 06:00N 45°42' W 026°00'1413.9 1008.9
2014-Oct-12 05:00N 45°36' W 026°18'   1010.4

Dump ship's entire track history